Year,Month,Day,Hour,Minute,Value (Times are PST for windgust in km/hr)
2018,01,21,00,00,14.50
2018,01,21,00,01,35.40
2018,01,21,00,02,25.70
2018,01,21,00,03,40.20
2018,01,21,00,04,27.40
2018,01,21,00,05,40.20
2018,01,21,00,06,38.60
2018,01,21,00,07,30.60
2018,01,21,00,08,37.00
2018,01,21,00,09,16.10
2018,01,21,00,10,29.00
2018,01,21,00,11,37.00
2018,01,21,00,12,40.20
2018,01,21,00,13,30.60
2018,01,21,00,14,25.70
2018,01,21,00,15,17.70
2018,01,21,00,16,27.40
2018,01,21,00,17,32.20
2018,01,21,00,18,25.70
2018,01,21,00,19,20.90
2018,01,21,00,20,40.20
2018,01,21,00,21,22.50
2018,01,21,00,22,33.80
2018,01,21,00,23,29.00
2018,01,21,00,24,32.20
2018,01,21,00,25,38.60
2018,01,21,00,26,19.30
2018,01,21,00,27,17.70
2018,01,21,00,28,32.20
2018,01,21,00,29,27.40
2018,01,21,00,30,27.40
2018,01,21,00,31,35.40
2018,01,21,00,32,25.70
2018,01,21,00,33,30.60
2018,01,21,00,34,22.50
2018,01,21,00,35,20.90
2018,01,21,00,36,29.00
2018,01,21,00,37,22.50
2018,01,21,00,38,30.60
2018,01,21,00,39,20.90
2018,01,21,00,40,14.50
2018,01,21,00,41,19.30
2018,01,21,00,42,32.20
2018,01,21,00,43,20.90
2018,01,21,00,44,27.40
2018,01,21,00,45,32.20
2018,01,21,00,46,32.20
2018,01,21,00,47,29.00
2018,01,21,00,48,20.90
2018,01,21,00,49,30.60
2018,01,21,00,50,27.40
2018,01,21,00,51,27.40
2018,01,21,00,52,25.70
2018,01,21,00,53,24.20
2018,01,21,00,54,22.50
2018,01,21,00,55,17.70
2018,01,21,00,56,29.00
2018,01,21,00,57,32.20
2018,01,21,00,58,17.70
2018,01,21,00,59,22.50
2018,01,21,01,00,27.40
2018,01,21,01,01,25.70
2018,01,21,01,02,17.70
2018,01,21,01,03,19.30
2018,01,21,01,04,27.40
2018,01,21,01,05,22.50
2018,01,21,01,06,14.50
2018,01,21,01,07,17.70
2018,01,21,01,08,17.70
2018,01,21,01,09,30.60
2018,01,21,01,10,27.40
2018,01,21,01,11,35.40
2018,01,21,01,12,25.70
2018,01,21,01,13,24.20
2018,01,21,01,14,37.00
2018,01,21,01,15,29.00
2018,01,21,01,16,22.50
2018,01,21,01,17,20.90
2018,01,21,01,18,33.80
2018,01,21,01,19,24.20
2018,01,21,01,20,17.70
2018,01,21,01,21,25.70
2018,01,21,01,22,19.30
2018,01,21,01,23,24.20
2018,01,21,01,24,22.50
2018,01,21,01,25,25.70
2018,01,21,01,26,30.60
2018,01,21,01,27,20.90
2018,01,21,01,28,35.40
2018,01,21,01,29,35.40
2018,01,21,01,30,38.60
2018,01,21,01,31,33.80
2018,01,21,01,32,17.70
2018,01,21,01,33,24.20
2018,01,21,01,34,27.40
2018,01,21,01,35,35.40
2018,01,21,01,36,37.00
2018,01,21,01,37,38.60
2018,01,21,01,38,29.00
2018,01,21,01,39,35.40
2018,01,21,01,40,20.90
2018,01,21,01,41,20.90
2018,01,21,01,42,19.30
2018,01,21,01,43,27.40
2018,01,21,01,44,22.50
2018,01,21,01,45,25.70
2018,01,21,01,46,22.50
2018,01,21,01,47,17.70
2018,01,21,01,48,24.20
2018,01,21,01,49,20.90
2018,01,21,01,50,30.60
2018,01,21,01,51,29.00
2018,01,21,01,52,29.00
2018,01,21,01,53,25.70
2018,01,21,01,54,25.70
2018,01,21,01,55,29.00
2018,01,21,01,56,37.00
2018,01,21,01,57,32.20
2018,01,21,01,58,25.70
2018,01,21,01,59,24.20
2018,01,21,02,00,20.90
2018,01,21,02,01,32.20
2018,01,21,02,02,35.40
2018,01,21,02,03,17.70
2018,01,21,02,04,32.20
2018,01,21,02,05,29.00
2018,01,21,02,06,27.40
2018,01,21,02,07,24.20
2018,01,21,02,08,43.50
2018,01,21,02,09,20.90
2018,01,21,02,10,19.30
2018,01,21,02,11,37.00
2018,01,21,02,12,24.20
2018,01,21,02,13,19.30
2018,01,21,02,14,37.00
2018,01,21,02,15,19.30
2018,01,21,02,16,29.00
2018,01,21,02,17,14.50
2018,01,21,02,18,16.10
2018,01,21,02,19,32.20
2018,01,21,02,20,33.80
2018,01,21,02,21,20.90
2018,01,21,02,22,37.00
2018,01,21,02,23,17.70
2018,01,21,02,24,14.50
2018,01,21,02,25,25.70
2018,01,21,02,26,24.20
2018,01,21,02,27,32.20
2018,01,21,02,28,33.80
2018,01,21,02,29,27.40
2018,01,21,02,30,17.70
2018,01,21,02,31,17.70
2018,01,21,02,32,25.70
2018,01,21,02,33,24.20
2018,01,21,02,34,25.70
2018,01,21,02,35,17.70
2018,01,21,02,36,22.50
2018,01,21,02,37,19.30
2018,01,21,02,38,22.50
2018,01,21,02,39,24.20
2018,01,21,02,40,20.90
2018,01,21,02,41,25.70
2018,01,21,02,42,24.20
2018,01,21,02,43,41.80
2018,01,21,02,44,38.60
2018,01,21,02,45,29.00
2018,01,21,02,46,16.10
2018,01,21,02,47,27.40
2018,01,21,02,48,29.00
2018,01,21,02,49,14.50
2018,01,21,02,50,30.60
2018,01,21,02,51,11.30
2018,01,21,02,52,25.70
2018,01,21,02,53,35.40
2018,01,21,02,54,30.60
2018,01,21,02,55,32.20
2018,01,21,02,56,30.60
2018,01,21,02,57,24.20
2018,01,21,02,58,29.00
2018,01,21,02,59,25.70
2018,01,21,03,00,20.90
2018,01,21,03,01,59.50
2018,01,21,03,02,38.60
2018,01,21,03,03,41.80
2018,01,21,03,04,37.00
2018,01,21,03,05,24.20
2018,01,21,03,06,40.20
2018,01,21,03,07,33.80
2018,01,21,03,08,35.40
2018,01,21,03,09,27.40
2018,01,21,03,10,29.00
2018,01,21,03,11,29.00
2018,01,21,03,12,30.60
2018,01,21,03,13,27.40
2018,01,21,03,14,22.50
2018,01,21,03,15,20.90
2018,01,21,03,16,33.80
2018,01,21,03,17,24.20
2018,01,21,03,18,33.80
2018,01,21,03,19,20.90
2018,01,21,03,20,30.60
2018,01,21,03,21,25.70
2018,01,21,03,22,37.00
2018,01,21,03,23,33.80
2018,01,21,03,24,25.70
2018,01,21,03,25,27.40
2018,01,21,03,26,53.10
2018,01,21,03,27,30.60
2018,01,21,03,28,45.10
2018,01,21,03,29,17.70
2018,01,21,03,30,41.80
2018,01,21,03,31,33.80
2018,01,21,03,32,25.70
2018,01,21,03,33,46.70
2018,01,21,03,34,29.00
2018,01,21,03,35,43.50
2018,01,21,03,36,27.40
2018,01,21,03,37,35.40
2018,01,21,03,38,32.20
2018,01,21,03,39,22.50
2018,01,21,03,40,32.20
2018,01,21,03,41,37.00
2018,01,21,03,42,22.50
2018,01,21,03,43,32.20
2018,01,21,03,44,35.40
2018,01,21,03,45,25.70
2018,01,21,03,46,41.80
2018,01,21,03,47,22.50
2018,01,21,03,48,41.80
2018,01,21,03,49,37.00
2018,01,21,03,50,16.10
2018,01,21,03,51,27.40
2018,01,21,03,52,32.20
2018,01,21,03,53,32.20
2018,01,21,03,54,25.70
2018,01,21,03,55,27.40
2018,01,21,03,56,45.10
2018,01,21,03,57,27.40
2018,01,21,03,58,37.00
2018,01,21,03,59,35.40
2018,01,21,04,00,45.10
2018,01,21,04,01,27.40
2018,01,21,04,02,27.40
2018,01,21,04,03,33.80
2018,01,21,04,04,24.20
2018,01,21,04,05,35.40
2018,01,21,04,06,17.70
2018,01,21,04,07,35.40
2018,01,21,04,11,25.70
2018,01,21,04,12,20.90
2018,01,21,04,13,19.30
2018,01,21,04,14,33.80
2018,01,21,04,15,19.30
2018,01,21,04,16,41.80
2018,01,21,04,17,30.60
2018,01,21,04,18,20.90
2018,01,21,04,19,24.20
2018,01,21,04,20,25.70
2018,01,21,04,21,27.40
2018,01,21,04,22,33.80
2018,01,21,04,23,59.50
2018,01,21,04,24,38.60
2018,01,21,04,25,41.80
2018,01,21,04,26,30.60
2018,01,21,04,27,27.40
2018,01,21,04,28,16.10
2018,01,21,04,29,64.40
2018,01,21,04,30,35.40
2018,01,21,04,31,32.20
2018,01,21,04,32,43.50
2018,01,21,04,33,49.90
2018,01,21,04,34,30.60
2018,01,21,04,35,33.80
2018,01,21,04,36,45.10
2018,01,21,04,37,30.60
2018,01,21,04,38,40.20
2018,01,21,04,39,38.60
2018,01,21,04,40,41.80
2018,01,21,04,41,27.40
2018,01,21,04,42,30.60
2018,01,21,04,43,35.40
2018,01,21,04,44,37.00
2018,01,21,04,45,38.60
2018,01,21,04,46,40.20
2018,01,21,04,47,35.40
2018,01,21,04,48,37.00
2018,01,21,04,49,30.60
2018,01,21,04,50,41.80
2018,01,21,04,51,43.50
2018,01,21,04,52,29.00
2018,01,21,04,53,41.80
2018,01,21,04,54,57.90
2018,01,21,04,55,29.00
2018,01,21,04,56,33.80
2018,01,21,04,57,43.50
2018,01,21,04,58,37.00
2018,01,21,04,59,29.00
2018,01,21,05,00,24.20
2018,01,21,05,01,49.90
2018,01,21,05,02,33.80
2018,01,21,05,03,32.20
2018,01,21,05,04,25.70
2018,01,21,05,05,37.00
2018,01,21,05,06,22.50
2018,01,21,05,07,32.20
2018,01,21,05,08,22.50
2018,01,21,05,09,30.60
2018,01,21,05,10,17.70
2018,01,21,05,11,35.40
2018,01,21,05,12,66.00
2018,01,21,05,13,49.90
2018,01,21,05,14,40.20
2018,01,21,05,15,33.80
2018,01,21,05,16,22.50
2018,01,21,05,17,20.90
2018,01,21,05,18,51.50
2018,01,21,05,19,37.00
2018,01,21,05,20,25.70
2018,01,21,05,21,24.20
2018,01,21,05,22,33.80
2018,01,21,05,23,22.50
2018,01,21,05,24,22.50
2018,01,21,05,25,32.20
2018,01,21,05,26,27.40
2018,01,21,05,27,48.30
2018,01,21,05,28,33.80
2018,01,21,05,29,29.00
2018,01,21,05,30,24.20
2018,01,21,05,31,35.40
2018,01,21,05,32,51.50
2018,01,21,05,33,25.70
2018,01,21,05,34,22.50
2018,01,21,05,35,43.50
2018,01,21,05,36,33.80
2018,01,21,05,37,24.20
2018,01,21,05,38,43.50
2018,01,21,05,39,27.40
2018,01,21,05,40,25.70
2018,01,21,05,41,35.40
2018,01,21,05,42,30.60
2018,01,21,05,43,16.10
2018,01,21,05,44,41.80
2018,01,21,05,45,38.60
2018,01,21,05,46,33.80
2018,01,21,05,47,27.40
2018,01,21,05,48,29.00
2018,01,21,05,49,32.20
2018,01,21,05,50,29.00
2018,01,21,05,51,22.50
2018,01,21,05,52,57.90
2018,01,21,05,53,38.60
2018,01,21,05,54,40.20
2018,01,21,05,55,38.60
2018,01,21,05,56,43.50
2018,01,21,05,57,32.20
2018,01,21,05,58,48.30
2018,01,21,05,59,25.70
2018,01,21,06,00,38.60
2018,01,21,06,01,30.60
2018,01,21,06,02,30.60
2018,01,21,06,03,37.00
2018,01,21,06,04,20.90
2018,01,21,06,05,51.50
2018,01,21,06,06,33.80
2018,01,21,06,07,33.80
2018,01,21,06,08,27.40
2018,01,21,06,09,41.80
2018,01,21,06,10,43.50
2018,01,21,06,11,41.80
2018,01,21,06,12,38.60
2018,01,21,06,13,45.10
2018,01,21,06,14,41.80
2018,01,21,06,15,30.60
2018,01,21,06,16,38.60
2018,01,21,06,17,32.20
2018,01,21,06,18,16.10
2018,01,21,06,19,22.50
2018,01,21,06,20,20.90
2018,01,21,06,21,32.20
2018,01,21,06,22,35.40
2018,01,21,06,23,37.00
2018,01,21,06,24,46.70
2018,01,21,06,28,41.80
2018,01,21,06,29,30.60
2018,01,21,06,30,35.40
2018,01,21,06,31,30.60
2018,01,21,06,32,49.90
2018,01,21,06,33,38.60
2018,01,21,06,34,41.80
2018,01,21,06,35,37.00
2018,01,21,06,36,40.20
2018,01,21,06,37,37.00
2018,01,21,06,38,35.40
2018,01,21,06,39,29.00
2018,01,21,06,40,20.90
2018,01,21,06,41,30.60
2018,01,21,06,42,40.20
2018,01,21,06,43,32.20
2018,01,21,06,44,41.80
2018,01,21,06,45,38.60
2018,01,21,06,46,32.20
2018,01,21,06,47,38.60
2018,01,21,06,48,33.80
2018,01,21,06,49,37.00
2018,01,21,06,50,38.60
2018,01,21,06,51,32.20
2018,01,21,06,52,54.70
2018,01,21,06,53,35.40
2018,01,21,06,54,24.20
2018,01,21,06,55,40.20
2018,01,21,06,56,25.70
2018,01,21,06,57,29.00
2018,01,21,06,58,43.50
2018,01,21,06,59,32.20
2018,01,21,07,00,24.20
2018,01,21,07,01,32.20
2018,01,21,07,02,56.30
2018,01,21,07,03,35.40
2018,01,21,07,04,46.70
2018,01,21,07,05,38.60
2018,01,21,07,06,45.10
2018,01,21,07,07,24.20
2018,01,21,07,08,40.20
2018,01,21,07,09,27.40
2018,01,21,07,10,30.60
2018,01,21,07,11,37.00
2018,01,21,07,12,29.00
2018,01,21,07,13,32.20
2018,01,21,07,14,32.20
2018,01,21,07,15,48.30
2018,01,21,07,16,43.50
2018,01,21,07,17,43.50
2018,01,21,07,18,30.60
2018,01,21,07,19,25.70
2018,01,21,07,20,41.80
2018,01,21,07,21,27.40
2018,01,21,07,22,29.00
2018,01,21,07,23,37.00
2018,01,21,07,24,25.70
2018,01,21,07,25,41.80
2018,01,21,07,26,48.30
2018,01,21,07,27,24.20
2018,01,21,07,28,33.80
2018,01,21,07,29,33.80
2018,01,21,07,30,25.70
2018,01,21,07,31,54.70
2018,01,21,07,32,38.60
2018,01,21,07,33,38.60
2018,01,21,07,34,35.40
2018,01,21,07,35,57.90
2018,01,21,07,36,48.30
2018,01,21,07,37,43.50
2018,01,21,07,38,33.80
2018,01,21,07,39,46.70
2018,01,21,07,43,25.70
2018,01,21,07,44,25.70
2018,01,21,07,45,29.00
2018,01,21,13,49,4.80
2018,01,21,13,50,9.60
2018,01,21,13,51,22.50
2018,01,21,13,52,6.40
2018,01,21,13,53,20.90
2018,01,21,13,54,12.90
2018,01,21,13,55,6.40
2018,01,21,13,56,9.60
2018,01,21,13,57,14.50
2018,01,21,13,58,16.10
2018,01,21,13,59,16.10
2018,01,21,14,00,14.50
2018,01,21,14,01,16.10
2018,01,21,14,02,4.80
2018,01,21,14,03,3.20
2018,01,21,14,04,4.80
2018,01,21,14,05,6.40
2018,01,21,14,06,8.10
2018,01,21,14,07,8.10
2018,01,21,14,08,16.10
2018,01,21,14,09,16.10
2018,01,21,14,10,12.90
2018,01,21,14,11,6.40
2018,01,21,14,12,3.20
2018,01,21,14,13,4.80
2018,01,21,14,14,4.80
2018,01,21,14,15,3.20
2018,01,21,14,16,1.60
2018,01,21,14,20,6.40
2018,01,21,14,21,3.20
2018,01,21,14,22,9.60
2018,01,21,14,23,1.60
2018,01,21,14,25,1.60
2018,01,21,14,35,1.60
2018,01,21,14,36,3.20
2018,01,21,14,37,1.60
2018,01,21,14,39,1.60
2018,01,21,14,40,3.20
2018,01,21,14,41,4.80
2018,01,21,15,00,3.20
2018,01,21,15,01,4.80
2018,01,21,15,02,1.60
2018,01,21,15,03,8.10
2018,01,21,15,04,8.10
2018,01,21,15,05,14.50
2018,01,21,15,06,6.40
2018,01,21,15,07,9.60
2018,01,21,15,08,8.10
2018,01,21,15,09,8.10
2018,01,21,15,10,3.20
2018,01,21,15,12,9.60
2018,01,21,15,13,8.10
2018,01,21,15,14,12.90
2018,01,21,15,15,19.30
2018,01,21,15,16,16.10
2018,01,21,15,17,6.40
2018,01,21,15,18,6.40
2018,01,21,15,19,29.00
2018,01,21,15,20,14.50
2018,01,21,15,21,17.70
2018,01,21,15,22,22.50
2018,01,21,15,23,4.80
2018,01,21,15,24,20.90
2018,01,21,15,25,19.30
2018,01,21,15,26,14.50
2018,01,21,15,27,16.10
2018,01,21,15,28,8.10
2018,01,21,15,29,16.10
2018,01,21,15,30,14.50
2018,01,21,15,31,16.10
2018,01,21,15,32,33.80
2018,01,21,15,33,16.10
2018,01,21,15,34,14.50
2018,01,21,15,35,17.70
2018,01,21,15,36,12.90
2018,01,21,15,37,24.20
2018,01,21,15,38,17.70
2018,01,21,15,39,12.90
2018,01,21,15,40,9.60
2018,01,21,15,41,16.10
2018,01,21,15,42,12.90
2018,01,21,15,43,8.10
2018,01,21,15,44,6.40
2018,01,21,15,45,14.50
2018,01,21,15,46,9.60
2018,01,21,15,47,4.80
2018,01,21,15,48,6.40
2018,01,21,15,49,6.40
2018,01,21,15,50,12.90
2018,01,21,15,51,12.90
2018,01,21,15,52,16.10
2018,01,21,15,53,20.90
2018,01,21,15,54,16.10
2018,01,21,15,55,12.90
2018,01,21,15,56,12.90
2018,01,21,15,57,20.90
2018,01,21,15,58,25.70
2018,01,21,15,59,24.20
2018,01,21,16,00,17.70
2018,01,21,16,01,9.60
2018,01,21,16,02,20.90
2018,01,21,16,03,14.50
2018,01,21,16,04,9.60
2018,01,21,16,05,12.90
2018,01,21,16,06,20.90
2018,01,21,16,07,14.50
2018,01,21,16,08,20.90
2018,01,21,16,09,30.60
2018,01,21,16,10,19.30
2018,01,21,16,11,29.00
2018,01,21,16,12,22.50
2018,01,21,16,13,22.50
2018,01,21,16,14,8.10
2018,01,21,16,15,17.70
2018,01,21,16,16,19.30
2018,01,21,16,17,17.70
2018,01,21,16,18,17.70
2018,01,21,16,19,9.60
2018,01,21,16,20,20.90
2018,01,21,16,21,24.20
2018,01,21,16,22,14.50
2018,01,21,16,23,16.10
2018,01,21,16,24,16.10
2018,01,21,16,25,12.90
2018,01,21,16,26,8.10
2018,01,21,16,27,8.10
2018,01,21,16,28,4.80
2018,01,21,16,29,12.90
2018,01,21,16,30,9.60
2018,01,21,16,31,16.10
2018,01,21,16,32,17.70
2018,01,21,16,33,16.10
2018,01,21,16,34,16.10
2018,01,21,16,35,19.30
2018,01,21,16,36,20.90
2018,01,21,16,37,9.60
2018,01,21,16,38,6.40
2018,01,21,16,39,19.30
2018,01,21,16,40,12.90
2018,01,21,16,41,8.10
2018,01,21,16,42,14.50
2018,01,21,16,43,25.70
2018,01,21,16,44,20.90
2018,01,21,16,45,14.50
2018,01,21,16,46,17.70
2018,01,21,16,47,20.90
2018,01,21,16,48,20.90
2018,01,21,16,49,19.30
2018,01,21,16,50,14.50
2018,01,21,16,51,22.50
2018,01,21,16,52,30.60
2018,01,21,16,53,35.40
2018,01,21,16,54,22.50
2018,01,21,16,55,19.30
2018,01,21,16,56,16.10
2018,01,21,16,57,12.90
2018,01,21,16,58,9.60
2018,01,21,16,59,16.10
2018,01,21,17,00,16.10
2018,01,21,17,01,14.50
2018,01,21,17,02,16.10
2018,01,21,17,03,19.30
2018,01,21,17,04,22.50
2018,01,21,17,05,20.90
2018,01,21,17,06,17.70
2018,01,21,17,07,12.90
2018,01,21,17,08,12.90
2018,01,21,17,09,8.10
2018,01,21,17,10,14.50
2018,01,21,17,11,20.90
2018,01,21,17,12,16.10
2018,01,21,17,13,8.10
2018,01,21,17,14,9.60
2018,01,21,17,15,14.50
2018,01,21,17,16,8.10
2018,01,21,17,17,20.90
2018,01,21,17,18,9.60
2018,01,21,17,19,8.10
2018,01,21,17,20,16.10
2018,01,21,17,21,20.90
2018,01,21,17,22,9.60
2018,01,21,17,23,16.10
2018,01,21,17,24,9.60
2018,01,21,17,25,17.70
2018,01,21,17,26,19.30
2018,01,21,17,27,17.70
2018,01,21,17,28,8.10
2018,01,21,17,29,22.50
2018,01,21,17,30,20.90
2018,01,21,17,31,19.30
2018,01,21,17,32,20.90
2018,01,21,17,33,17.70
2018,01,21,17,34,14.50
2018,01,21,17,35,14.50
2018,01,21,17,36,9.60
2018,01,21,17,37,17.70
2018,01,21,17,38,17.70
2018,01,21,17,39,9.60
2018,01,21,17,40,29.00
2018,01,21,17,41,12.90
2018,01,21,17,42,22.50
2018,01,21,17,43,22.50
2018,01,21,17,44,4.80
2018,01,21,17,45,16.10
2018,01,21,17,46,9.60
2018,01,21,17,47,22.50
2018,01,21,17,48,16.10
2018,01,21,17,49,9.60
2018,01,21,17,50,6.40
2018,01,21,17,51,6.40
2018,01,21,17,52,16.10
2018,01,21,17,53,17.70
2018,01,21,17,54,8.10
2018,01,21,17,55,14.50
2018,01,21,17,56,19.30
2018,01,21,17,57,9.60
2018,01,21,17,58,8.10
2018,01,21,17,59,6.40
2018,01,21,18,00,12.90
2018,01,21,18,01,9.60
2018,01,21,18,02,12.90
2018,01,21,18,03,12.90
2018,01,21,18,04,14.50
2018,01,21,18,05,6.40
2018,01,21,18,06,19.30
2018,01,21,18,07,16.10
2018,01,21,18,08,9.60
2018,01,21,18,09,14.50
2018,01,21,18,10,6.40
2018,01,21,18,11,6.40
2018,01,21,18,12,25.70
2018,01,21,18,13,24.20
2018,01,21,18,14,12.90
2018,01,21,18,15,14.50
2018,01,21,18,16,16.10
2018,01,21,18,17,9.60
2018,01,21,18,18,16.10
2018,01,21,18,19,19.30
2018,01,21,18,20,17.70
2018,01,21,18,21,19.30
2018,01,21,18,22,25.70
2018,01,21,18,23,19.30
2018,01,21,18,24,17.70
2018,01,21,18,25,9.60
2018,01,21,18,26,12.90
2018,01,21,18,27,12.90
2018,01,21,18,28,9.60
2018,01,21,18,29,14.50
2018,01,21,18,30,8.10
2018,01,21,18,31,9.60
2018,01,21,18,32,14.50
2018,01,21,18,33,6.40
2018,01,21,18,34,9.60
2018,01,21,18,35,6.40
2018,01,21,18,36,8.10
2018,01,21,18,37,6.40
2018,01,21,18,38,3.20
2018,01,21,18,39,4.80
2018,01,21,18,40,6.40
2018,01,21,18,41,9.60
2018,01,21,18,42,16.10
2018,01,21,18,43,8.10
2018,01,21,18,44,9.60
2018,01,21,18,45,8.10
2018,01,21,18,46,14.50
2018,01,21,18,47,19.30
2018,01,21,18,48,16.10
2018,01,21,18,49,12.90
2018,01,21,18,50,6.40
2018,01,21,18,51,4.80
2018,01,21,18,52,16.10
2018,01,21,18,53,9.60
2018,01,21,18,54,16.10
2018,01,21,18,55,17.70
2018,01,21,18,56,17.70
2018,01,21,18,57,16.10
2018,01,21,18,58,20.90
2018,01,21,18,59,12.90
2018,01,21,19,00,14.50
2018,01,21,19,01,14.50
2018,01,21,19,02,9.60
2018,01,21,19,03,16.10
2018,01,21,19,04,12.90
2018,01,21,19,05,9.60
2018,01,21,19,06,12.90
2018,01,21,19,07,14.50
2018,01,21,19,08,14.50
2018,01,21,19,09,19.30
2018,01,21,19,10,14.50
2018,01,21,19,11,19.30
2018,01,21,19,12,17.70
2018,01,21,19,13,14.50
2018,01,21,19,14,16.10
2018,01,21,19,15,12.90
2018,01,21,19,16,12.90
2018,01,21,19,17,16.10
2018,01,21,19,18,16.10
2018,01,21,19,19,17.70
2018,01,21,19,20,17.70
2018,01,21,19,21,12.90
2018,01,21,19,22,22.50
2018,01,21,19,23,20.90
2018,01,21,19,24,19.30
2018,01,21,19,25,19.30
2018,01,21,19,26,12.90
2018,01,21,19,27,12.90
2018,01,21,19,28,17.70
2018,01,21,19,29,14.50
2018,01,21,19,30,12.90
2018,01,21,19,31,14.50
2018,01,21,19,32,14.50
2018,01,21,19,33,19.30
2018,01,21,19,34,8.10
2018,01,21,19,35,14.50
2018,01,21,19,36,19.30
2018,01,21,19,37,16.10
2018,01,21,19,38,12.90
2018,01,21,19,39,22.50
2018,01,21,19,40,24.20
2018,01,21,19,41,9.60
2018,01,21,19,42,17.70
2018,01,21,19,43,14.50
2018,01,21,19,44,12.90
2018,01,21,19,45,20.90
2018,01,21,19,46,17.70
2018,01,21,19,47,12.90
2018,01,21,19,48,14.50
2018,01,21,19,49,16.10
2018,01,21,19,50,14.50
2018,01,21,19,51,8.10
2018,01,21,19,52,14.50
2018,01,21,19,53,12.90
2018,01,21,19,54,8.10
2018,01,21,19,55,9.60
2018,01,21,19,56,12.90
2018,01,21,19,57,20.90
2018,01,21,19,58,8.10
2018,01,21,19,59,12.90
2018,01,21,20,00,12.90
2018,01,21,20,01,12.90
2018,01,21,20,02,16.10
2018,01,21,20,03,9.60
2018,01,21,20,04,9.60
2018,01,21,20,05,8.10
2018,01,21,20,06,8.10
2018,01,21,20,07,14.50
2018,01,21,20,08,12.90
2018,01,21,20,09,9.60
2018,01,21,20,10,12.90
2018,01,21,20,11,14.50
2018,01,21,20,12,8.10
2018,01,21,20,13,6.40
2018,01,21,20,14,1.60
2018,01,21,20,15,6.40
2018,01,21,20,16,8.10
2018,01,21,20,17,8.10
2018,01,21,20,18,3.20
2018,01,21,20,19,4.80
2018,01,21,20,20,9.60
2018,01,21,20,21,6.40
2018,01,21,20,22,6.40
2018,01,21,20,23,6.40
2018,01,21,20,24,14.50
2018,01,21,20,25,16.10
2018,01,21,20,26,8.10
2018,01,21,20,27,6.40
2018,01,21,20,28,6.40
2018,01,21,20,29,12.90
2018,01,21,20,30,16.10
2018,01,21,20,31,9.60
2018,01,21,20,32,8.10
2018,01,21,20,33,9.60
2018,01,21,20,34,8.10
2018,01,21,20,35,12.90
2018,01,21,20,36,4.80
2018,01,21,20,37,8.10
2018,01,21,20,38,4.80
2018,01,21,20,39,9.60
2018,01,21,20,40,9.60
2018,01,21,20,41,9.60
2018,01,21,20,42,4.80
2018,01,21,20,43,8.10
2018,01,21,20,44,8.10
2018,01,21,20,45,3.20
2018,01,21,20,46,6.40
2018,01,21,20,47,8.10
2018,01,21,20,48,3.20
2018,01,21,20,49,4.80
2018,01,21,20,50,12.90
2018,01,21,20,51,8.10
2018,01,21,20,52,4.80
2018,01,21,20,53,9.60
2018,01,21,20,54,17.70
2018,01,21,20,55,9.60
2018,01,21,20,56,8.10
2018,01,21,20,57,6.40
2018,01,21,20,58,4.80
2018,01,21,20,59,1.60
2018,01,21,21,02,4.80
2018,01,21,21,03,1.60
2018,01,21,21,04,1.60
2018,01,21,21,05,3.20
2018,01,21,21,16,1.60
2018,01,21,21,17,1.60
2018,01,21,21,18,4.80
2018,01,21,21,19,4.80
2018,01,21,21,20,6.40
2018,01,21,21,21,6.40
2018,01,21,21,22,3.20
2018,01,21,21,23,4.80
2018,01,21,21,24,4.80
2018,01,21,21,25,8.10
2018,01,21,21,26,9.60
2018,01,21,21,27,9.60
2018,01,21,21,28,16.10
2018,01,21,21,29,9.60
2018,01,21,21,30,12.90
2018,01,21,21,31,4.80
2018,01,21,21,32,8.10
2018,01,21,21,33,16.10
2018,01,21,21,34,9.60
2018,01,21,21,35,12.90
2018,01,21,21,36,12.90
2018,01,21,21,37,16.10
2018,01,21,21,38,6.40
2018,01,21,21,39,8.10
2018,01,21,21,40,9.60
2018,01,21,21,41,3.20
2018,01,21,21,42,12.90
2018,01,21,21,43,12.90
2018,01,21,21,44,12.90
2018,01,21,21,45,9.60
2018,01,21,21,46,17.70
2018,01,21,21,47,22.50
2018,01,21,21,48,24.20
2018,01,21,21,49,14.50
2018,01,21,21,50,6.40
2018,01,21,21,51,16.10
2018,01,21,21,52,14.50
2018,01,21,21,53,6.40
2018,01,21,21,54,8.10
2018,01,21,21,55,12.90
2018,01,21,21,56,17.70
2018,01,21,21,57,19.30
2018,01,21,21,58,12.90
2018,01,21,21,59,6.40
2018,01,21,22,00,9.60
2018,01,21,22,01,12.90
2018,01,21,22,02,8.10
2018,01,21,22,03,14.50
2018,01,21,22,04,12.90
2018,01,21,22,05,19.30
2018,01,21,22,06,17.70
2018,01,21,22,07,16.10
2018,01,21,22,08,25.70
2018,01,21,22,09,22.50
2018,01,21,22,10,19.30
2018,01,21,22,11,20.90
2018,01,21,22,12,12.90
2018,01,21,22,13,14.50
2018,01,21,22,14,14.50
2018,01,21,22,15,8.10
2018,01,21,22,16,14.50
2018,01,21,22,17,14.50
2018,01,21,22,18,22.50
2018,01,21,22,19,22.50
2018,01,21,22,20,14.50
2018,01,21,22,21,17.70
2018,01,21,22,22,12.90
2018,01,21,22,23,4.80
2018,01,21,22,24,8.10
2018,01,21,22,25,16.10
2018,01,21,22,26,9.60
2018,01,21,22,27,24.20
2018,01,21,22,28,16.10
2018,01,21,22,29,24.20
2018,01,21,22,30,24.20
2018,01,21,22,31,14.50
2018,01,21,22,32,12.90
2018,01,21,22,33,9.60
2018,01,21,22,34,17.70
2018,01,21,22,35,9.60
2018,01,21,22,36,24.20
2018,01,21,22,37,14.50
2018,01,21,22,38,16.10
2018,01,21,22,39,16.10
2018,01,21,22,40,14.50
2018,01,21,22,41,12.90
2018,01,21,22,42,9.60
2018,01,21,22,43,12.90
2018,01,21,22,44,14.50
2018,01,21,22,45,14.50
2018,01,21,22,46,14.50
2018,01,21,22,47,14.50
2018,01,21,22,48,14.50
2018,01,21,22,49,9.60
2018,01,21,22,50,8.10
2018,01,21,22,51,14.50
2018,01,21,22,52,14.50
2018,01,21,22,53,6.40
2018,01,21,22,54,9.60
2018,01,21,22,55,12.90
2018,01,21,22,56,9.60
2018,01,21,22,57,14.50
2018,01,21,22,58,8.10
2018,01,21,22,59,12.90
2018,01,21,23,00,17.70
2018,01,21,23,01,20.90
2018,01,21,23,02,14.50
2018,01,21,23,03,8.10
2018,01,21,23,04,9.60
2018,01,21,23,05,12.90
2018,01,21,23,06,12.90
2018,01,21,23,07,8.10
2018,01,21,23,08,4.80
2018,01,21,23,09,16.10
2018,01,21,23,10,14.50
2018,01,21,23,11,14.50
2018,01,21,23,12,12.90
2018,01,21,23,13,8.10
2018,01,21,23,14,12.90
2018,01,21,23,15,9.60
2018,01,21,23,16,8.10
2018,01,21,23,17,8.10
2018,01,21,23,18,8.10
2018,01,21,23,19,16.10
2018,01,21,23,20,14.50
2018,01,21,23,21,8.10
2018,01,21,23,22,8.10
2018,01,21,23,23,8.10
2018,01,21,23,24,14.50
2018,01,21,23,25,14.50
2018,01,21,23,26,14.50
2018,01,21,23,27,8.10
2018,01,21,23,28,12.90
2018,01,21,23,29,8.10
2018,01,21,23,30,14.50
2018,01,21,23,31,16.10
2018,01,21,23,32,17.70
2018,01,21,23,33,9.60
2018,01,21,23,34,16.10
2018,01,21,23,35,20.90
2018,01,21,23,36,19.30
2018,01,21,23,37,17.70
2018,01,21,23,38,12.90
2018,01,21,23,39,12.90
2018,01,21,23,40,12.90
2018,01,21,23,41,9.60
2018,01,21,23,42,6.40
2018,01,21,23,43,9.60
2018,01,21,23,44,17.70
2018,01,21,23,45,9.60
2018,01,21,23,46,8.10
2018,01,21,23,47,8.10
2018,01,21,23,48,4.80
2018,01,21,23,49,9.60
2018,01,21,23,50,6.40
2018,01,21,23,51,14.50
2018,01,21,23,52,12.90
2018,01,21,23,53,12.90
2018,01,21,23,54,6.40
2018,01,21,23,55,4.80
2018,01,21,23,56,9.60
2018,01,21,23,57,9.60
2018,01,21,23,58,8.10
2018,01,21,23,59,8.10
